• In India
  • List of Countries
  • For 7 days
  • Water Temperature
  • Satellite Maps
  • Weather Map
  • Weather Widgets
  • user-avatar
    Login

    Hourly Weather Kohima

    Today, 16 November, Friday

    Time Temperature Precipitation Wind Pressure Humidity
    00:00 +11°C° 0 mm 1 mps 652 mmHg 89%
    01:00 +11°C° 0 mm 1 mps 652 mmHg 88%
    02:00 +11°C° 0 mm 1 mps 652 mmHg 87%
    03:00 +11°C° 0 mm 1 mps 652 mmHg 85%
    04:00 +11°C° 0 mm 1 mps 652 mmHg 84%
    05:00 +11°C° 0 mm 1 mps 652 mmHg 84%
    06:00 +11°C° 0 mm 1 mps 652 mmHg 79%
    07:00 +14°C° 0 mm 1 mps 653 mmHg 69%
    08:00 +18°C° 0 mm 1 mps 654 mmHg 60%
    09:00 +21°C° 0 mm 1 mps 655 mmHg 50%
    10:00 +22°C° 0 mm 1 mps 655 mmHg 47%
    11:00 +23°C° 0 mm 1 mps 655 mmHg 44%
    12:00 +24°C° 0 mm 2 mps 655 mmHg 41%
    13:00 +23°C° 0 mm 1 mps 654 mmHg 43%
    14:00 +23°C° 0 mm 1 mps 654 mmHg 45%
    15:00 +22°C° 0 mm 1 mps 653 mmHg 47%
    16:00 +20°C° 0 mm 1 mps 652 mmHg 59%
    17:00 +16°C° 0 mm 1 mps 652 mmHg 71%
    18:00 +14°C° 0 mm 1 mps 651 mmHg 83%
    19:00 +13°C° 0 mm 1 mps 651 mmHg 84%
    20:00 +12°C° 0 mm 1 mps 651 mmHg 86%
    21:00 +12°C° 0 mm 1 mps 652 mmHg 87%
    22:00 +11°C° 0 mm 1 mps 652 mmHg 86%
    23:00 +11°C° 0 mm 1 mps 652 mmHg 86%

    Tomorrow, 17 November, Saturday

    Time Temperature Precipitation Wind Pressure Humidity
    00:00 +11°C° 0 mm 1 mps 652 mmHg 85%
    01:00 +11°C° 0 mm 1 mps 652 mmHg 86%
    02:00 +11°C° 0 mm 1 mps 651 mmHg 86%
    03:00 +11°C° 0 mm 1 mps 651 mmHg 87%
    04:00 +11°C° 0 mm 1 mps 651 mmHg 87%
    05:00 +10°C° 0 mm 1 mps 651 mmHg 87%
    06:00 +10°C° 0 mm 1 mps 651 mmHg 87%
    07:00 +13°C° 0 mm 1 mps 653 mmHg 75%
    08:00 +16°C° 0 mm 1 mps 654 mmHg 63%
    09:00 +20°C° 0 mm 1 mps 655 mmHg 52%
    10:00 +21°C° 0 mm 1 mps 655 mmHg 49%
    11:00 +22°C° 0 mm 1 mps 655 mmHg 47%
    12:00 +22°C° 0 mm 1 mps 655 mmHg 45%
    13:00 +22°C° 0 mm 1 mps 654 mmHg 48%
    14:00 +21°C° 0 mm 1 mps 653 mmHg 51%
    15:00 +21°C° 0 mm 1 mps 653 mmHg 55%
    16:00 +19°C° 0 mm 1 mps 652 mmHg 63%
    17:00 +16°C° 0 mm 1 mps 652 mmHg 72%
    18:00 +14°C° 0 mm 1 mps 651 mmHg 81%
    19:00 +13°C° 0 mm 1 mps 652 mmHg 82%
    20:00 +13°C° 0 mm 1 mps 652 mmHg 83%
    21:00 +13°C° 0 mm 1 mps 652 mmHg 84%
    22:00 +12°C° 0 mm 1 mps 652 mmHg 84%
    23:00 +12°C° 0 mm 1 mps 652 mmHg 85%

    Day after tomorrow, 18 November, Sunday

    Time Temperature Precipitation Wind Pressure Humidity
    00:00 +12°C° 0 mm 1 mps 652 mmHg 85%
    01:00 +12°C° 0 mm 1 mps 652 mmHg 86%
    02:00 +12°C° 0 mm 1 mps 652 mmHg 87%
    03:00 +10°C° 0 mm 0 mps 652 mmHg 88%
    04:00 +10°C° 0.1 mm 0 mps 652 mmHg 89%
    05:00 +11°C° 0.1 mm 1 mps 653 mmHg 89%
    06:00 +11°C° 0.1 mm 1 mps 653 mmHg 89%
    07:00 +13°C° 0.1 mm 1 mps 654 mmHg 81%
    08:00 +16°C° 0.1 mm 1 mps 656 mmHg 73%
    09:00 +19°C° 0.1 mm 1 mps 657 mmHg 65%
    10:00 +20°C° 0.1 mm 1 mps 656 mmHg 62%
    11:00 +21°C° 0.1 mm 1 mps 656 mmHg 58%
    12:00 +22°C° 0.1 mm 1 mps 656 mmHg 55%
    13:00 +21°C° 0.1 mm 1 mps 655 mmHg 57%
    14:00 +21°C° 0.1 mm 1 mps 654 mmHg 59%
    15:00 +20°C° 0.1 mm 1 mps 654 mmHg 62%
    16:00 +18°C° 0.1 mm 1 mps 653 mmHg 72%
    17:00 +15°C° 0.1 mm 1 mps 653 mmHg 81%
    18:00 +12°C° 0.1 mm 0 mps 652 mmHg 91%
    19:00 +12°C° 0 mm 0 mps 653 mmHg 91%
    20:00 +12°C° 0 mm 0 mps 653 mmHg 91%
    21:00 +11°C° 0 mm 0 mps 653 mmHg 91%
    22:00 +12°C° 0 mm 1 mps 653 mmHg 92%
    23:00 +12°C° 0 mm 1 mps 653 mmHg 92%

    19 November, Monday

    Time Temperature Precipitation Wind Pressure Humidity
    00:00 +11°C° 0 mm 1 mps 653 mmHg 92%
    01:00 +11°C° 0 mm 1 mps 653 mmHg 92%
    02:00 +11°C° 0 mm 1 mps 652 mmHg 93%
    03:00 +10°C° 0 mm 1 mps 652 mmHg 93%
    04:00 +10°C° 0 mm 1 mps 652 mmHg 92%
    05:00 +10°C° 0 mm 1 mps 653 mmHg 92%
    06:00 +10°C° 0 mm 1 mps 653 mmHg 91%
    07:00 +12°C° 0 mm 1 mps 654 mmHg 80%
    08:00 +15°C° 0 mm 1 mps 656 mmHg 69%
    09:00 +19°C° 0 mm 1 mps 657 mmHg 58%
    10:00 +21°C° 0 mm 1 mps 657 mmHg 53%
    11:00 +22°C° 0 mm 1 mps 657 mmHg 47%
    12:00 +23°C° 0 mm 1 mps 656 mmHg 42%
    13:00 +22°C° 0 mm 1 mps 656 mmHg 44%
    14:00 +22°C° 0 mm 1 mps 655 mmHg 47%
    15:00 +21°C° 0 mm 1 mps 654 mmHg 49%
    16:00 +19°C° 0 mm 1 mps 654 mmHg 61%
    17:00 +15°C° 0 mm 1 mps 653 mmHg 74%
    18:00 +12°C° 0 mm 1 mps 652 mmHg 86%
    19:00 +12°C° 0 mm 1 mps 653 mmHg 87%
    20:00 +11°C° 0 mm 1 mps 653 mmHg 88%
    21:00 +11°C° 0 mm 1 mps 653 mmHg 88%
    22:00 +11°C° 0 mm 1 mps 653 mmHg 88%
    23:00 +10°C° 0 mm 1 mps 653 mmHg 87%

    20 November, Tuesday

    Time Temperature Precipitation Wind Pressure Humidity
    00:00 +10°C° 0 mm 1 mps 653 mmHg 87%
    01:00 +10°C° 0 mm 1 mps 653 mmHg 86%
    02:00 +10°C° 0 mm 1 mps 652 mmHg 85%
    03:00 +9°C° 0 mm 1 mps 652 mmHg 84%
    04:00 +9°C° 0 mm 1 mps 652 mmHg 83%
    05:00 +9°C° 0 mm 1 mps 652 mmHg 82%
    06:00 +9°C° 0 mm 1 mps 653 mmHg 80%
    07:00 +12°C° 0 mm 1 mps 654 mmHg 69%
    08:00 +15°C° 0 mm 1 mps 656 mmHg 57%
    09:00 +18°C° 0 mm 0 mps 657 mmHg 46%
    10:00 +21°C° 0 mm 1 mps 657 mmHg 43%
    11:00 +22°C° 0 mm 1 mps 656 mmHg 40%
    12:00 +23°C° 0 mm 1 mps 656 mmHg 36%
    13:00 +22°C° 0 mm 1 mps 655 mmHg 39%
    14:00 +22°C° 0 mm 1 mps 655 mmHg 42%
    15:00 +22°C° 0 mm 1 mps 654 mmHg 45%
    16:00 +19°C° 0 mm 1 mps 653 mmHg 58%
    17:00 +15°C° 0 mm 1 mps 653 mmHg 71%
    18:00 +12°C° 0 mm 1 mps 652 mmHg 84%
    19:00 +11°C° 0 mm 1 mps 652 mmHg 85%
    20:00 +11°C° 0 mm 1 mps 652 mmHg 85%
    21:00 +10°C° 0 mm 1 mps 653 mmHg 86%
    22:00 +10°C° 0 mm 1 mps 653 mmHg 85%
    23:00 +10°C° 0 mm 1 mps 652 mmHg 84%

    21 November, Wednesday

    Time Temperature Precipitation Wind Pressure Humidity
    00:00 +10°C° 0 mm 1 mps 652 mmHg 83%
    01:00 +9°C° 0 mm 1 mps 652 mmHg 82%
    02:00 +9°C° 0 mm 1 mps 652 mmHg 81%
    03:00 +9°C° 0 mm 1 mps 652 mmHg 81%
    04:00 +9°C° 0 mm 1 mps 652 mmHg 80%
    05:00 +9°C° 0 mm 1 mps 652 mmHg 80%
    06:00 +8°C° 0 mm 1 mps 652 mmHg 80%
    07:00 +12°C° 0 mm 1 mps 654 mmHg 69%
    08:00 +14°C° 0 mm 0 mps 655 mmHg 58%
    09:00 +17°C° 0 mm 0 mps 657 mmHg 47%
    10:00 +20°C° 0 mm 1 mps 656 mmHg 43%
    11:00 +21°C° 0 mm 1 mps 656 mmHg 40%
    12:00 +23°C° 0 mm 1 mps 656 mmHg 36%
    13:00 +22°C° 0 mm 1 mps 655 mmHg 39%
    14:00 +22°C° 0 mm 1 mps 655 mmHg 42%
    15:00 +21°C° 0 mm 1 mps 654 mmHg 45%
    16:00 +18°C° 0 mm 1 mps 653 mmHg 59%
    17:00 +14°C° 0 mm 1 mps 653 mmHg 72%
    18:00 +11°C° 0 mm 0 mps 652 mmHg 85%
    19:00 +11°C° 0 mm 1 mps 653 mmHg 87%
    20:00 +11°C° 0 mm 1 mps 653 mmHg 88%
    21:00 +10°C° 0 mm 1 mps 653 mmHg 89%
    22:00 +10°C° 0 mm 1 mps 653 mmHg 88%
    23:00 +10°C° 0 mm 1 mps 653 mmHg 88%
    Show more